| time (UTC) | temp F | wind direction | speed knots | gust knots | rain 1hr in | rain 24hr in | rain mn in | humidity % | barometer mb |
| 20260508044010 | 61 | 290 | 2.6 | 7.8 | 0.00 | 0.00 | 0.00 | 90 | 1015.7 |
| 20260508043516 | 61 | 250 | 1.7 | 7.8 | 0.00 | 0.00 | 0.00 | 90 | 1015.7 |
| 20260508043029 | 61 | 265 | 2.6 | 7.8 | 0.00 | 0.00 | 0.00 | 90 | 1015.6 |
| 20260508042512 | 61 | 241 | 1.7 | 7.0 | 0.00 | 0.00 | 0.00 | 89 | 1015.6 |
| 20260508042013 | 61 | 261 | 1.7 | 7.0 | 0.00 | 0.00 | 0.00 | 89 | 1015.5 |
| 20260508041532 | 61 | 255 | 0.9 | 7.8 | 0.00 | 0.00 | 0.00 | 89 | 1015.5 |
| 20260508041012 | 61 | 252 | 2.6 | 7.8 | 0.00 | 0.00 | 0.00 | 89 | 1015.4 |
| 20260508040512 | 61 | 279 | 2.6 | 8.7 | 0.00 | 0.00 | 0.00 | 89 | 1015.3 |
| 20260508040031 | 61 | 259 | 3.5 | 8.7 | 0.00 | 0.00 | 0.00 | 89 | 1015.2 |
| 20260508035512 | 61 | 212 | 1.7 | 6.1 | 0.00 | 0.00 | 0.00 | 89 | 1015.2 |
| 20260508035013 | 61 | 240 | 1.7 | 6.1 | 0.00 | 0.00 | 0.00 | 89 | 1015.2 |
| 20260508034530 | 61 | 252 | 1.7 | 6.1 | 0.00 | 0.00 | 0.00 | 89 | 1015.2 |
| 20260508034012 | 61 | 238 | 0.9 | 6.1 | 0.00 | 0.00 | 0.00 | 89 | 1015.1 |
| 20260508033509 | 61 | 259 | 1.7 | 6.1 | 0.00 | 0.00 | 0.00 | 89 | 1015.0 |
| 20260508033034 | 61 | 240 | 0.9 | 6.1 | 0.00 | 0.00 | 0.00 | 89 | 1015.0 |
| 20260508032516 | 61 | 266 | 0.9 | 6.1 | 0.00 | 0.00 | 0.00 | 89 | 1015.0 |
| 20260508032013 | 61 | 261 | 1.7 | 6.1 | 0.00 | 0.00 | 0.00 | 88 | 1014.9 |
| 20260508031529 | 61 | 0 | 0.9 | 5.2 | 0.00 | 0.00 | 0.00 | 88 | 1014.8 |
| 20260508031012 | 62 | 270 | 0.9 | 5.2 | 0.00 | 0.00 | 0.00 | 88 | 1014.7 |
| 20260508030509 | 62 | 263 | 0.9 | 5.2 | 0.00 | 0.00 | 0.00 | 88 | 1014.7 |
| 20260508030036 | 62 | 242 | 1.7 | 7.0 | 0.00 | 0.00 | 0.00 | 88 | 1014.6 |
| 20260508025515 | 62 | 242 | 1.7 | 7.0 | 0.00 | 0.00 | 0.00 | 88 | 1014.5 |
| 20260508025013 | 62 | 235 | 1.7 | 7.0 | 0.00 | 0.00 | 0.00 | 88 | 1014.5 |
| 20260508024531 | 62 | 265 | 1.7 | 7.0 | 0.00 | 0.00 | 0.00 | 87 | 1014.4 |
| 20260508024013 | 62 | 238 | 1.7 | 7.0 | 0.00 | 0.00 | 0.00 | 87 | 1014.4 |
| 20260508023513 | 62 | 246 | 2.6 | 9.6 | 0.00 | 0.00 | 0.00 | 87 | 1014.4 |
| 20260508023033 | 62 | 286 | 3.5 | 9.6 | 0.00 | 0.00 | 0.00 | 86 | 1014.4 |
| 20260508022513 | 63 | 261 | 2.6 | 10.4 | 0.00 | 0.00 | 0.00 | 86 | 1014.3 |
| 20260508022012 | 63 | 266 | 2.6 | 10.4 | 0.00 | 0.00 | 0.00 | 86 | 1014.3 |
| 20260508021533 | 63 | 295 | 4.3 | 10.4 | 0.00 | 0.00 | 0.00 | 86 | 1014.3 |
| 20260508021016 | 63 | 257 | 3.5 | 8.7 | 0.00 | 0.00 | 0.00 | 86 | 1014.2 |
| 20260508020512 | 63 | 225 | 3.5 | 8.7 | 0.00 | 0.00 | 0.00 | 86 | 1014.3 |
| 20260508020030 | 63 | 242 | 3.5 | 8.7 | 0.00 | 0.00 | 0.00 | 85 | 1014.3 |
| 20260508015510 | 64 | 219 | 1.7 | 8.7 | 0.00 | 0.00 | 0.00 | 84 | 1014.2 |
| 20260508015010 | 64 | 270 | 3.5 | 8.7 | 0.00 | 0.00 | 0.00 | 84 | 1014.2 |
| 20260508014531 | 64 | 219 | 1.7 | 8.7 | 0.00 | 0.00 | 0.00 | 83 | 1014.2 |
| 20260508014013 | 64 | 235 | 2.6 | 8.7 | 0.00 | 0.00 | 0.00 | 83 | 1014.3 |
| 20260508013512 | 64 | 244 | 1.7 | 9.6 | 0.00 | 0.00 | 0.00 | 83 | 1014.2 |
| 20260508013030 | 64 | 217 | 4.3 | 9.6 | 0.00 | 0.00 | 0.00 | 83 | 1014.1 |
| 20260508012509 | 64 | 268 | 3.5 | 8.7 | 0.00 | 0.00 | 0.00 | 83 | 1014.2 |
| 20260508012011 | 64 | 232 | 3.5 | 8.7 | 0.00 | 0.00 | 0.00 | 84 | 1014.1 |
| 20260508011532 | 64 | 220 | 2.6 | 8.7 | 0.00 | 0.00 | 0.00 | 85 | 1014.2 |
| 20260508011012 | 64 | 259 | 2.6 | 7.0 | 0.00 | 0.00 | 0.00 | 84 | 1014.2 |
| 20260508010512 | 65 | 330 | 1.7 | 7.0 | 0.00 | 0.00 | 0.00 | 84 | 1014.2 |
| 20260508010038 | 64 | 202 | 3.5 | 11.3 | 0.00 | 0.00 | 0.00 | 84 | 1014.2 |
| 20260508005512 | 65 | 211 | 2.6 | 11.3 | 0.00 | 0.00 | 0.00 | 84 | 1014.1 |
| 20260508005014 | 65 | 269 | 2.6 | 11.3 | 0.00 | 0.00 | 0.00 | 83 | 1014.1 |
| 20260508004530 | 65 | 265 | 2.6 | 7.8 | 0.00 | 0.00 | 0.00 | 83 | 1014.1 |
| 20260508004016 | 65 | 217 | 3.5 | 9.6 | 0.00 | 0.00 | 0.00 | 83 | 1014.0 |
| 20260508003510 | 65 | 239 | 3.5 | 9.6 | 0.00 | 0.00 | 0.00 | 84 | 1014.1 |
| 20260508003030 | 64 | 216 | 4.3 | 10.4 | 0.00 | 0.00 | 0.00 | 84 | 1014.2 |
| 20260508002514 | 65 | 269 | 3.5 | 10.4 | 0.00 | 0.00 | 0.00 | 84 | 1014.2 |
| 20260508002014 | 65 | 223 | 3.5 | 10.4 | 0.00 | 0.00 | 0.00 | 83 | 1014.1 |
| 20260508001530 | 65 | 215 | 3.5 | 8.7 | 0.00 | 0.00 | 0.00 | 83 | 1014.1 |
| 20260508001010 | 65 | 280 | 3.5 | 9.6 | 0.00 | 0.00 | 0.00 | 82 | 1014.2 |
| 20260508000510 | 66 | 216 | 3.5 | 9.6 | 0.00 | 0.00 | 0.00 | 82 | 1014.2 |
| 20260508000038 | 66 | 245 | 3.5 | 8.7 | 0.00 | 0.00 | 0.00 | 82 | 1014.2 |
| 20260507235516 | 66 | 216 | 3.5 | 8.7 | 0.00 | 0.00 | 0.00 | 82 | 1014.2 |
| 20260507235013 | 65 | 269 | 2.6 | 11.3 | 0.00 | 0.00 | 0.00 | 83 | 1014.2 |
| 20260507234530 | 65 | 225 | 5.2 | 11.3 | 0.00 | 0.00 | 0.00 | 82 | 1014.3 |
| 20260507234012 | 65 | 236 | 3.5 | 10.4 | 0.00 | 0.00 | 0.00 | 83 | 1014.4 |
| 20260507233509 | 65 | 269 | 3.5 | 10.4 | 0.00 | 0.00 | 0.00 | 83 | 1014.4 |
| 20260507233038 | 66 | 257 | 4.3 | 10.4 | 0.00 | 0.00 | 0.00 | 83 | 1014.4 |
| 20260507232513 | 66 | 271 | 4.3 | 10.4 | 0.00 | 0.00 | 0.00 | 82 | 1014.4 |
| 20260507232014 | 66 | 275 | 3.5 | 10.4 | 0.00 | 0.00 | 0.00 | 82 | 1014.4 |
| 20260507231531 | 66 | 249 | 4.3 | 10.4 | 0.00 | 0.00 | 0.00 | 82 | 1014.4 |
| 20260507231011 | 66 | 269 | 2.6 | 8.7 | 0.00 | 0.00 | 0.00 | 82 | 1014.4 |
| 20260507230512 | 66 | 197 | 3.5 | 10.4 | 0.00 | 0.00 | 0.00 | 81 | 1014.4 |
| 20260507230045 | 67 | 240 | 5.2 | 13.9 | 0.00 | 0.00 | 0.00 | 80 | 1014.4 |
| 20260507225514 | 67 | 221 | 4.3 | 13.9 | 0.00 | 0.00 | 0.00 | 80 | 1014.4 |
| 20260507225013 | 67 | 261 | 4.3 | 13.9 | 0.00 | 0.00 | 0.00 | 80 | 1014.3 |
| 20260507224535 | 67 | 289 | 5.2 | 13.0 | 0.00 | 0.00 | 0.00 | 79 | 1014.4 |
| 20260507224009 | 67 | 221 | 5.2 | 13.0 | 0.00 | 0.00 | 0.00 | 80 | 1014.4 |
| 20260507223509 | 66 | 277 | 6.1 | 15.6 | 0.00 | 0.00 | 0.00 | 81 | 1014.4 |
| 20260507223104 | 66 | 257 | 7.0 | 15.6 | 0.00 | 0.00 | 0.00 | 80 | 1014.4 |
| 20260507222510 | 66 | 259 | 7.8 | 15.6 | 0.00 | 0.00 | 0.00 | 80 | 1014.5 |
| 20260507222012 | 66 | 267 | 7.0 | 14.8 | 0.00 | 0.00 | 0.00 | 80 | 1014.5 |
| 20260507221531 | 66 | 248 | 7.8 | 14.8 | 0.00 | 0.00 | 0.00 | 80 | 1014.5 |
| 20260507221012 | 66 | 240 | 6.1 | 13.0 | 0.00 | 0.00 | 0.00 | 80 | 1014.7 |
| 20260507220512 | 66 | 211 | 5.2 | 13.0 | 0.00 | 0.00 | 0.00 | 80 | 1014.6 |
| 20260507220033 | 66 | 255 | 6.1 | 14.8 | 0.00 | 0.00 | 0.00 | 79 | 1014.7 |
| 20260507215513 | 67 | 268 | 6.1 | 14.8 | 0.00 | 0.00 | 0.00 | 79 | 1014.6 |
| 20260507215012 | 67 | 230 | 7.0 | 13.9 | 0.00 | 0.00 | 0.00 | 79 | 1014.6 |
| 20260507214530 | 67 | 235 | 5.2 | 15.6 | 0.00 | 0.00 | 0.00 | 79 | 1014.6 |
| 20260507214012 | 66 | 253 | 5.2 | 16.5 | 0.00 | 0.00 | 0.00 | 79 | 1014.7 |
| 20260507213509 | 67 | 267 | 7.0 | 16.5 | 0.00 | 0.00 | 0.00 | 79 | 1014.7 |
| 20260507213030 | 67 | 252 | 7.8 | 16.5 | 0.00 | 0.00 | 0.00 | 79 | 1014.8 |
| 20260507212509 | 67 | 306 | 7.0 | 15.6 | 0.00 | 0.00 | 0.00 | 80 | 1014.7 |
| 20260507212017 | 67 | 219 | 7.0 | 15.6 | 0.00 | 0.00 | 0.00 | 79 | 1014.8 |
| 20260507211528 | 66 | 275 | 6.1 | 14.8 | 0.00 | 0.00 | 0.00 | 80 | 1014.9 |
| 20260507211010 | 67 | 248 | 7.8 | 14.8 | 0.00 | 0.00 | 0.00 | 79 | 1015.0 |
| 20260507210516 | 67 | 259 | 6.1 | 14.8 | 0.00 | 0.00 | 0.00 | 79 | 1015.1 |
| 20260507210037 | 67 | 248 | 5.2 | 13.0 | 0.00 | 0.00 | 0.00 | 80 | 1015.2 |
| 20260507205510 | 67 | 248 | 6.1 | 14.8 | 0.00 | 0.00 | 0.00 | 79 | 1015.4 |
| 20260507205012 | 66 | 238 | 7.0 | 14.8 | 0.00 | 0.00 | 0.00 | 81 | 1015.4 |
| 20260507204533 | 66 | 245 | 7.0 | 14.8 | 0.00 | 0.00 | 0.00 | 81 | 1015.3 |
| 20260507204012 | 66 | 186 | 7.8 | 13.0 | 0.00 | 0.00 | 0.00 | 79 | 1015.4 |
| 20260507203512 | 66 | 241 | 6.1 | 13.9 | 0.00 | 0.00 | 0.00 | 80 | 1015.4 |
| 20260507203036 | 66 | 202 | 7.0 | 15.6 | 0.00 | 0.00 | 0.00 | 80 | 1015.4 |
| 20260507202509 | 66 | 288 | 8.7 | 15.6 | 0.00 | 0.00 | 0.00 | 80 | 1015.4 |
| 20260507202014 | 66 | 215 | 5.2 | 13.0 | 0.00 | 0.00 | 0.00 | 80 | 1015.5 |
| 20260507201534 | 66 | 265 | 5.2 | 14.8 | 0.00 | 0.00 | 0.00 | 81 | 1015.5 |
| 20260507201020 | 66 | 230 | 6.1 | 14.8 | 0.00 | 0.00 | 0.00 | 81 | 1015.5 |
| 20260507200510 | 66 | 254 | 7.0 | 14.8 | 0.00 | 0.00 | 0.00 | 80 | 1015.6 |
| 20260507200049 | 66 | 272 | 7.0 | 13.9 | 0.00 | 0.00 | 0.00 | 79 | 1015.6 |
| 20260507195513 | 67 | 287 | 4.3 | 13.0 | 0.00 | 0.00 | 0.00 | 80 | 1015.6 |
| 20260507195011 | 66 | 275 | 6.1 | 13.0 | 0.00 | 0.00 | 0.00 | 80 | 1015.7 |
| 20260507194531 | 67 | 261 | 6.1 | 12.2 | 0.00 | 0.00 | 0.00 | 80 | 1015.8 |
| 20260507194012 | 67 | 267 | 5.2 | 13.0 | 0.00 | 0.00 | 0.00 | 79 | 1015.9 |
| 20260507193512 | 66 | 294 | 6.1 | 13.0 | 0.00 | 0.00 | 0.00 | 79 | 1015.9 |
| 20260507193043 | 66 | 206 | 5.2 | 13.0 | 0.00 | 0.00 | 0.00 | 79 | 1015.9 |
| 20260507192511 | 67 | 235 | 6.1 | 13.0 | 0.00 | 0.00 | 0.00 | 78 | 1016.0 |
| 20260507192013 | 67 | 254 | 4.3 | 10.4 | 0.00 | 0.00 | 0.00 | 79 | 1016.1 |
| 20260507191529 | 66 | 250 | 5.2 | 9.6 | 0.00 | 0.00 | 0.00 | 80 | 1016.2 |
| 20260507191012 | 66 | 265 | 4.3 | 11.3 | 0.00 | 0.00 | 0.00 | 79 | 1016.3 |
| 20260507190512 | 66 | 153 | 6.1 | 11.3 | 0.00 | 0.00 | 0.00 | 79 | 1016.3 |
| 20260507190036 | 67 | 277 | 5.2 | 10.4 | 0.00 | 0.00 | 0.00 | 79 | 1016.3 |
| 20260507185512 | 67 | 173 | 4.3 | 10.4 | 0.00 | 0.00 | 0.00 | 79 | 1016.3 |
| 20260507185010 | 67 | 253 | 5.2 | 11.3 | 0.00 | 0.00 | 0.00 | 79 | 1016.3 |
| 20260507184528 | 67 | 205 | 4.3 | 11.3 | 0.00 | 0.00 | 0.00 | 79 | 1016.3 |
| 20260507184014 | 67 | 240 | 5.2 | 11.3 | 0.00 | 0.00 | 0.00 | 79 | 1016.3 |
| 20260507183517 | 67 | 275 | 3.5 | 9.6 | 0.00 | 0.00 | 0.00 | 79 | 1016.3 |
| 20260507183037 | 67 | 240 | 3.5 | 10.4 | 0.00 | 0.00 | 0.00 | 78 | 1016.4 |
| 20260507182514 | 67 | 221 | 3.5 | 10.4 | 0.00 | 0.00 | 0.00 | 79 | 1016.4 |
| 20260507182013 | 67 | 259 | 4.3 | 10.4 | 0.00 | 0.00 | 0.00 | 79 | 1016.4 |
| 20260507181535 | 67 | 271 | 5.2 | 9.6 | 0.00 | 0.00 | 0.00 | 79 | 1016.5 |
| 20260507181016 | 67 | 259 | 3.5 | 7.8 | 0.00 | 0.00 | 0.00 | 79 | 1016.5 |
| 20260507180516 | 67 | 260 | 2.6 | 10.4 | 0.00 | 0.00 | 0.00 | 79 | 1016.6 |
| 20260507180030 | 67 | 262 | 3.5 | 10.4 | 0.00 | 0.00 | 0.00 | 79 | 1016.5 |
| 20260507175510 | 67 | 281 | 2.6 | 9.6 | 0.00 | 0.00 | 0.00 | 80 | 1016.6 |
| 20260507175013 | 66 | 208 | 4.3 | 9.6 | 0.00 | 0.00 | 0.00 | 80 | 1016.5 |
| 20260507174537 | 66 | 267 | 5.2 | 9.6 | 0.00 | 0.00 | 0.00 | 80 | 1016.5 |
| 20260507174010 | 66 | 250 | 3.5 | 9.6 | 0.00 | 0.00 | 0.00 | 80 | 1016.6 |
| 20260507173514 | 66 | 245 | 3.5 | 9.6 | 0.00 | 0.00 | 0.00 | 81 | 1016.6 |
| 20260507173028 | 65 | 290 | 3.5 | 9.6 | 0.00 | 0.00 | 0.00 | 81 | 1016.6 |
| 20260507172513 | 65 | 260 | 5.2 | 9.6 | 0.00 | 0.00 | 0.00 | 81 | 1016.7 |
| 20260507172012 | 66 | 221 | 4.3 | 9.6 | 0.00 | 0.00 | 0.00 | 81 | 1016.6 |
| 20260507171530 | 66 | 262 | 3.5 | 8.7 | 0.00 | 0.00 | 0.00 | 81 | 1016.6 |
| 20260507171015 | 66 | 218 | 3.5 | 8.7 | 0.00 | 0.00 | 0.00 | 81 | 1016.6 |
| 20260507170510 | 65 | 257 | 3.5 | 7.8 | 0.00 | 0.00 | 0.00 | 81 | 1016.6 |
| 20260507170030 | 65 | 201 | 2.6 | 7.0 | 0.00 | 0.00 | 0.00 | 82 | 1016.6 |
| 20260507165512 | 65 | 261 | 3.5 | 7.0 | 0.00 | 0.00 | 0.00 | 81 | 1016.7 |
| 20260507165010 | 65 | 207 | 2.6 | 7.0 | 0.00 | 0.00 | 0.00 | 82 | 1016.6 |
| 20260507164529 | 65 | 271 | 2.6 | 7.8 | 0.00 | 0.00 | 0.00 | 82 | 1016.6 |
| 20260507164014 | 65 | 270 | 1.7 | 7.8 | 0.00 | 0.00 | 0.00 | 82 | 1016.6 |
| 20260507163512 | 65 | 242 | 2.6 | 7.0 | 0.00 | 0.00 | 0.00 | 82 | 1016.7 |
| 20260507163031 | 65 | 250 | 1.7 | 7.0 | 0.00 | 0.00 | 0.00 | 83 | 1016.7 |
| 20260507162512 | 65 | 254 | 1.7 | 6.1 | 0.00 | 0.00 | 0.00 | 83 | 1016.7 |
| 20260507162009 | 65 | 278 | 1.7 | 6.1 | 0.00 | 0.00 | 0.00 | 82 | 1016.8 |
| 20260507161531 | 65 | 271 | 1.7 | 3.5 | 0.00 | 0.00 | 0.00 | 83 | 1016.7 |
| 20260507161011 | 64 | 217 | 0.9 | 3.5 | 0.00 | 0.00 | 0.00 | 83 | 1016.7 |
| 20260507160510 | 64 | 265 | 0.9 | 7.0 | 0.00 | 0.00 | 0.00 | 84 | 1016.8 |
| 20260507160030 | 64 | 235 | 2.6 | 7.0 | 0.00 | 0.00 | 0.00 | 84 | 1016.7 |
| 20260507155509 | 64 | 219 | 1.7 | 5.2 | 0.00 | 0.00 | 0.00 | 84 | 1016.8 |
| 20260507155016 | 63 | 245 | 0.9 | 5.2 | 0.00 | 0.00 | 0.00 | 85 | 1016.7 |
| 20260507154532 | 63 | 226 | 1.7 | 6.1 | 0.00 | 0.00 | 0.00 | 85 | 1016.7 |
| 20260507154014 | 63 | 242 | 0.9 | 6.1 | 0.00 | 0.00 | 0.00 | 86 | 1016.8 |
| 20260507153512 | 63 | 284 | 2.6 | 6.1 | 0.00 | 0.00 | 0.00 | 86 | 1016.7 |
| 20260507153035 | 62 | 252 | 1.7 | 6.1 | 0.00 | 0.00 | 0.00 | 87 | 1016.7 |
| 20260507152512 | 62 | 228 | 0.9 | 7.0 | 0.00 | 0.00 | 0.00 | 87 | 1016.7 |
| 20260507152014 | 62 | 257 | 1.7 | 7.8 | 0.00 | 0.00 | 0.00 | 88 | 1016.7 |
| 20260507151532 | 62 | 266 | 1.7 | 7.8 | 0.00 | 0.00 | 0.00 | 88 | 1016.9 |
| 20260507151013 | 62 | 278 | 1.7 | 5.2 | 0.00 | 0.00 | 0.00 | 89 | 1016.8 |
| 20260507150515 | 61 | 282 | 1.7 | 5.2 | 0.00 | 0.00 | 0.00 | 89 | 1016.8 |
| 20260507150032 | 61 | 265 | 1.7 | 6.1 | 0.00 | 0.00 | 0.00 | 89 | 1016.8 |
| 20260507145514 | 61 | 219 | 0.9 | 6.1 | 0.00 | 0.00 | 0.00 | 90 | 1016.8 |
| 20260507145014 | 61 | 275 | 0.9 | 4.3 | 0.00 | 0.00 | 0.00 | 90 | 1016.7 |
| 20260507144531 | 60 | 265 | 1.7 | 5.2 | 0.00 | 0.00 | 0.00 | 91 | 1016.7 |
| 20260507144011 | 60 | 221 | 1.7 | 6.1 | 0.00 | 0.00 | 0.00 | 91 | 1016.7 |
| 20260507143512 | 60 | 264 | 2.6 | 6.1 | 0.00 | 0.00 | 0.00 | 92 | 1016.6 |
| 20260507143032 | 60 | 250 | 0.0 | 4.3 | 0.00 | 0.00 | 0.00 | 93 | 1016.6 |
| 20260507142513 | 59 | 0 | 0.9 | 3.5 | 0.00 | 0.00 | 0.00 | 93 | 1016.6 |
| 20260507142010 | 59 | 267 | 0.9 | 3.5 | 0.00 | 0.00 | 0.00 | 93 | 1016.5 |
| 20260507141532 | 59 | 234 | 0.9 | 3.5 | 0.00 | 0.00 | 0.00 | 94 | 1016.4 |
| 20260507141013 | 58 | 225 | 0.9 | 2.6 | 0.00 | 0.00 | 0.00 | 94 | 1016.4 |
| 20260507140515 | 58 | 267 | 0.9 | 2.6 | 0.00 | 0.00 | 0.00 | 95 | 1016.4 |
| 20260507140033 | 57 | 250 | 0.9 | 2.6 | 0.00 | 0.00 | 0.00 | 95 | 1016.3 |
| 20260507135519 | 57 | 283 | 0.9 | 2.6 | 0.00 | 0.00 | 0.00 | 95 | 1016.3 |
| 20260507135014 | 56 | 221 | 0.0 | 1.7 | 0.00 | 0.00 | 0.00 | 96 | 1016.3 |
| 20260507134529 | 55 | 230 | 0.0 | 1.7 | 0.00 | 0.00 | 0.00 | 95 | 1016.2 |
| 20260507134014 | 55 | 230 | 0.0 | 1.7 | 0.00 | 0.00 | 0.00 | 95 | 1016.2 |
| 20260507133516 | 54 | 0 | 0.0 | 0.0 | 0.00 | 0.00 | 0.00 | 95 | 1016.2 |
| 20260507133033 | 53 | 0 | 0.0 | 0.0 | 0.00 | 0.00 | 0.00 | 94 | 1016.1 |
| 20260507132512 | 53 | 0 | 0.0 | 0.0 | 0.00 | 0.00 | 0.00 | 94 | 1016.1 |
| 20260507132015 | 53 | 0 | 0.0 | 0.0 | 0.00 | 0.00 | 0.00 | 93 | 1016.1 |
| 20260507131530 | 53 | 0 | 0.0 | 0.0 | 0.00 | 0.00 | 0.00 | 93 | 1016.1 |
| 20260507131014 | 53 | 0 | 0.0 | 0.0 | 0.00 | 0.00 | 0.00 | 93 | 1016.1 |
| 20260507130513 | 53 | 0 | 0.0 | 0.0 | 0.00 | 0.00 | 0.00 | 93 | 1016.1 |
| 20260507130053 | 53 | 0 | 0.0 | 0.0 | 0.00 | 0.00 | 0.00 | 93 | 1015.9 |
| 20260507125510 | 53 | 0 | 0.0 | 0.0 | 0.00 | 0.00 | 0.00 | 93 | 1016.0 |
| 20260507125012 | 53 | 0 | 0.0 | 0.0 | 0.00 | 0.00 | 0.00 | 93 | 1016.0 |
| 20260507124529 | 54 | 0 | 0.0 | 0.0 | 0.00 | 0.00 | 0.00 | 93 | 1015.9 |
| 20260507124011 | 54 | 0 | 0.0 | 0.0 | 0.00 | 0.00 | 0.00 | 93 | 1016.0 |
| 20260507123513 | 54 | 0 | 0.0 | 0.0 | 0.00 | 0.00 | 0.00 | 93 | 1016.0 |
| 20260507123030 | 54 | 0 | 0.0 | 0.0 | 0.00 | 0.00 | 0.00 | 93 | 1015.9 |
| 20260507122512 | 54 | 0 | 0.0 | 0.9 | 0.00 | 0.00 | 0.00 | 93 | 1015.9 |
| 20260507122016 | 54 | 0 | 0.0 | 0.9 | 0.00 | 0.00 | 0.00 | 93 | 1016.0 |
| 20260507121531 | 54 | 0 | 0.0 | 0.0 | 0.00 | 0.00 | 0.00 | 93 | 1016.0 |
| 20260507121010 | 54 | 0 | 0.0 | 0.0 | 0.00 | 0.00 | 0.00 | 93 | 1016.1 |
| 20260507120509 | 54 | 0 | 0.0 | 0.0 | 0.00 | 0.00 | 0.00 | 93 | 1016.0 |
| 20260507120036 | 54 | 0 | 0.0 | 1.7 | 0.00 | 0.00 | 0.00 | 93 | 1016.0 |
| 20260507115513 | 54 | 0 | 0.0 | 1.7 | 0.00 | 0.00 | 0.00 | 93 | 1016.1 |
| 20260507115014 | 54 | 230 | 0.0 | 0.9 | 0.00 | 0.00 | 0.00 | 93 | 1016.0 |
| 20260507114533 | 54 | 0 | 0.0 | 0.0 | 0.00 | 0.00 | 0.00 | 93 | 1016.0 |
| 20260507114014 | 54 | 0 | 0.0 | 0.0 | 0.00 | 0.00 | 0.00 | 93 | 1016.1 |
| 20260507113514 | 54 | 0 | 0.0 | 0.0 | 0.00 | 0.00 | 0.00 | 93 | 1016.0 |
| 20260507113029 | 54 | 0 | 0.0 | 0.0 | 0.00 | 0.00 | 0.00 | 93 | 1016.0 |
| 20260507112510 | 54 | 0 | 0.0 | 0.0 | 0.00 | 0.00 | 0.00 | 93 | 1016.1 |
| 20260507112013 | 55 | 0 | 0.0 | 0.9 | 0.00 | 0.00 | 0.00 | 93 | 1016.1 |
| 20260507111529 | 55 | 0 | 0.0 | 0.9 | 0.00 | 0.00 | 0.00 | 93 | 1016.1 |
| 20260507111013 | 55 | 0 | 0.0 | 0.9 | 0.00 | 0.00 | 0.00 | 93 | 1016.1 |
| 20260507110513 | 55 | 0 | 0.0 | 0.0 | 0.00 | 0.00 | 0.00 | 93 | 1016.1 |
| 20260507110030 | 55 | 0 | 0.0 | 0.0 | 0.00 | 0.00 | 0.00 | 93 | 1016.2 |
| 20260507105510 | 55 | 0 | 0.0 | 0.0 | 0.00 | 0.00 | 0.00 | 93 | 1016.2 |
| 20260507105010 | 55 | 0 | 0.0 | 0.0 | 0.00 | 0.00 | 0.00 | 92 | 1016.3 |
| 20260507104530 | 55 | 0 | 0.0 | 0.0 | 0.00 | 0.00 | 0.00 | 92 | 1016.4 |
| 20260507104015 | 55 | 0 | 0.0 | 0.0 | 0.00 | 0.00 | 0.00 | 92 | 1016.3 |
| 20260507103513 | 55 | 0 | 0.0 | 0.0 | 0.00 | 0.00 | 0.00 | 92 | 1016.4 |
| 20260507103030 | 56 | 0 | 0.0 | 0.0 | 0.00 | 0.00 | 0.00 | 92 | 1016.4 |
| 20260507102509 | 56 | 0 | 0.0 | 0.0 | 0.00 | 0.00 | 0.00 | 92 | 1016.4 |
| 20260507102013 | 56 | 0 | 0.0 | 0.9 | 0.00 | 0.00 | 0.00 | 92 | 1016.4 |
| 20260507101539 | 56 | 0 | 0.0 | 0.9 | 0.00 | 0.00 | 0.00 | 92 | 1016.4 |
| 20260507101018 | 56 | 0 | 0.0 | 0.9 | 0.00 | 0.00 | 0.00 | 92 | 1016.4 |
| 20260507100514 | 56 | 0 | 0.0 | 0.0 | 0.00 | 0.00 | 0.00 | 92 | 1016.5 |
| 20260507100044 | 56 | 0 | 0.0 | 0.0 | 0.00 | 0.00 | 0.00 | 92 | 1016.4 |
| 20260507095513 | 56 | 0 | 0.0 | 0.0 | 0.00 | 0.00 | 0.00 | 92 | 1016.4 |
| 20260507095011 | 56 | 0 | 0.0 | 0.0 | 0.00 | 0.00 | 0.00 | 92 | 1016.4 |
| 20260507094532 | 57 | 0 | 0.0 | 0.0 | 0.00 | 0.00 | 0.00 | 91 | 1016.4 |
| 20260507094013 | 57 | 0 | 0.0 | 0.9 | 0.00 | 0.00 | 0.00 | 91 | 1016.5 |
| 20260507093512 | 57 | 0 | 0.0 | 0.9 | 0.00 | 0.00 | 0.00 | 91 | 1016.6 |
| 20260507093032 | 57 | 0 | 0.0 | 0.9 | 0.00 | 0.00 | 0.00 | 91 | 1016.7 |
| 20260507092515 | 57 | 0 | 0.0 | 0.0 | 0.00 | 0.00 | 0.00 | 92 | 1016.7 |
| 20260507092012 | 57 | 0 | 0.0 | 0.0 | 0.00 | 0.00 | 0.00 | 91 | 1016.7 |
| 20260507091532 | 57 | 0 | 0.0 | 0.0 | 0.00 | 0.00 | 0.00 | 91 | 1016.8 |
| 20260507091015 | 57 | 0 | 0.0 | 0.0 | 0.00 | 0.00 | 0.00 | 91 | 1016.9 |
| 20260507090513 | 58 | 0 | 0.0 | 0.0 | 0.00 | 0.00 | 0.00 | 91 | 1016.9 |
| 20260507090033 | 58 | 0 | 0.0 | 0.0 | 0.00 | 0.00 | 0.00 | 91 | 1016.9 |
| 20260507085513 | 58 | 0 | 0.0 | 0.0 | 0.00 | 0.00 | 0.00 | 91 | 1017.0 |
| 20260507085010 | 58 | 0 | 0.0 | 0.0 | 0.00 | 0.00 | 0.00 | 91 | 1017.0 |
| 20260507084530 | 58 | 0 | 0.0 | 0.0 | 0.00 | 0.00 | 0.00 | 90 | 1017.1 |
| 20260507084012 | 58 | 0 | 0.0 | 0.0 | 0.00 | 0.00 | 0.00 | 91 | 1017.0 |
| 20260507083512 | 58 | 0 | 0.0 | 0.0 | 0.00 | 0.00 | 0.00 | 90 | 1017.1 |
| 20260507083035 | 59 | 0 | 0.0 | 0.9 | 0.00 | 0.00 | 0.00 | 90 | 1017.2 |
| 20260507082511 | 59 | 0 | 0.0 | 0.9 | 0.00 | 0.00 | 0.00 | 90 | 1017.1 |
| 20260507082010 | 59 | 0 | 0.0 | 0.9 | 0.00 | 0.00 | 0.00 | 90 | 1017.2 |
| 20260507081530 | 59 | 0 | 0.0 | 3.5 | 0.00 | 0.00 | 0.00 | 90 | 1017.2 |
| 20260507081013 | 59 | 0 | 0.0 | 3.5 | 0.00 | 0.00 | 0.00 | 90 | 1017.2 |
| 20260507080513 | 59 | 0 | 0.0 | 2.6 | 0.00 | 0.00 | 0.00 | 90 | 1017.2 |
| 20260507080031 | 59 | 258 | 0.0 | 5.2 | 0.00 | 0.00 | 0.00 | 90 | 1017.3 |
| 20260507075514 | 59 | 246 | 0.9 | 5.2 | 0.00 | 0.00 | 0.00 | 89 | 1017.3 |
| 20260507075012 | 59 | 268 | 1.7 | 6.1 | 0.00 | 0.00 | 0.00 | 89 | 1017.3 |
| 20260507074530 | 59 | 263 | 0.9 | 7.0 | 0.00 | 0.00 | 0.00 | 89 | 1017.3 |
| 20260507074012 | 59 | 248 | 2.6 | 7.0 | 0.00 | 0.00 | 0.00 | 89 | 1017.4 |
| 20260507073512 | 59 | 261 | 2.6 | 7.0 | 0.00 | 0.00 | 0.00 | 89 | 1017.4 |
| 20260507073032 | 59 | 213 | 1.7 | 6.1 | 0.00 | 0.00 | 0.00 | 89 | 1017.4 |
| 20260507072515 | 59 | 257 | 1.7 | 7.0 | 0.00 | 0.00 | 0.00 | 89 | 1017.5 |
| 20260507072013 | 59 | 246 | 1.7 | 7.0 | 0.00 | 0.00 | 0.00 | 89 | 1017.4 |
| 20260507071532 | 59 | 246 | 2.6 | 7.8 | 0.00 | 0.00 | 0.00 | 89 | 1017.4 |
| 20260507071013 | 59 | 265 | 2.6 | 7.8 | 0.00 | 0.00 | 0.00 | 90 | 1017.3 |
| 20260507070513 | 59 | 209 | 1.7 | 6.1 | 0.00 | 0.00 | 0.00 | 91 | 1017.4 |
| 20260507070037 | 59 | 226 | 1.7 | 6.1 | 0.00 | 0.00 | 0.00 | 91 | 1017.5 |
| 20260507065512 | 59 | 0 | 0.9 | 2.6 | 0.00 | 0.00 | 0.00 | 91 | 1017.5 |
| 20260507065013 | 59 | 267 | 0.0 | 3.5 | 0.00 | 0.00 | 0.00 | 91 | 1017.4 |
| 20260507064538 | 59 | 265 | 0.9 | 3.5 | 0.00 | 0.00 | 0.00 | 91 | 1017.4 |
| 20260507064013 | 59 | 0 | 0.9 | 3.5 | 0.00 | 0.00 | 0.00 | 91 | 1017.5 |
| 20260507063512 | 59 | 0 | 0.9 | 3.5 | 0.00 | 0.00 | 0.00 | 91 | 1017.6 |
| 20260507063032 | 59 | 267 | 0.0 | 5.2 | 0.00 | 0.00 | 0.00 | 91 | 1017.6 |
| 20260507062512 | 59 | 266 | 0.9 | 7.0 | 0.00 | 0.00 | 0.00 | 91 | 1017.6 |
| 20260507062013 | 59 | 221 | 1.7 | 7.0 | 0.00 | 0.00 | 0.00 | 91 | 1017.6 |
| 20260507061530 | 59 | 269 | 2.6 | 7.0 | 0.00 | 0.00 | 0.00 | 91 | 1017.6 |
| 20260507061013 | 59 | 267 | 1.7 | 7.0 | 0.00 | 0.00 | 0.00 | 91 | 1017.5 |
| 20260507060520 | 59 | 278 | 0.9 | 7.0 | 0.00 | 0.00 | 0.00 | 91 | 1017.5 |
| 20260507060030 | 59 | 278 | 2.6 | 7.0 | 0.00 | 0.00 | 0.00 | 91 | 1017.6 |
| 20260507055513 | 59 | 279 | 1.7 | 7.0 | 0.00 | 0.00 | 0.00 | 91 | 1017.6 |
| 20260507055014 | 59 | 258 | 1.7 | 6.1 | 0.00 | 0.00 | 0.00 | 91 | 1017.5 |
| 20260507054538 | 59 | 268 | 1.7 | 10.4 | 0.00 | 0.00 | 0.00 | 91 | 1017.5 |
| 20260507054012 | 59 | 266 | 0.9 | 10.4 | 0.00 | 0.00 | 0.00 | 90 | 1017.5 |
| 20260507053513 | 59 | 265 | 0.9 | 6.1 | 0.00 | 0.00 | 0.00 | 90 | 1017.6 |
| 20260507053030 | 60 | 269 | 1.7 | 6.1 | 0.00 | 0.00 | 0.00 | 90 | 1017.6 |
| 20260507052512 | 60 | 270 | 1.7 | 7.0 | 0.00 | 0.00 | 0.00 | 90 | 1017.6 |
| 20260507052012 | 60 | 262 | 1.7 | 7.8 | 0.00 | 0.00 | 0.00 | 90 | 1017.6 |
| 20260507051532 | 60 | 271 | 3.5 | 7.8 | 0.00 | 0.00 | 0.00 | 89 | 1017.6 |
| 20260507051012 | 60 | 272 | 2.6 | 7.0 | 0.00 | 0.00 | 0.00 | 89 | 1017.6 |
| 20260507050514 | 60 | 263 | 2.6 | 7.0 | 0.00 | 0.00 | 0.00 | 89 | 1017.6 |
| 20260507050036 | 60 | 252 | 2.6 | 6.1 | 0.00 | 0.00 | 0.00 | 88 | 1017.5 |
| 20260507045514 | 60 | 250 | 0.9 | 7.0 | 0.00 | 0.00 | 0.00 | 88 | 1017.5 |
| 20260507045013 | 60 | 251 | 1.7 | 7.8 | 0.00 | 0.00 | 0.00 | 88 | 1017.5 |
| 20260507044536 | 60 | 262 | 2.6 | 7.8 | 0.00 | 0.00 | 0.00 | 88 | 1017.5 |